Flag for U.S.A. Weather past 2 weeks in New Bedford, Massachusetts, U.S.A.

Now
44 °F

Clear.


Feels Like: 44 °F
Forecast: 49 / 70 °F
Wind: No wind

Location: New Bedford Regional Airport

Current Time: Sep 17, 2014 at 7:52:23 AM

Latest Report: Sep 17, 2014 at 6:53 AM


Visibility: 10 mi

Pressure: 30.01 "Hg

Humidity: 96%

Dew point: 43 °F

Location of New BedfordLocation

Historic Weather in New Bedford — Graph

°F

New Bedford temperature yesterday

Maximum temperature yesterday: 69 °F (at 1:53 PM)
Minimum temperature yesterday: 46 °F (at 12:53 AM)
Average temperature yesterday: 57 °F

Past Weeks' High & Low Weather Summary

 TemperatureHumidityPressure
High87 °F (Sep 2, 11:53 AM)100% (Sep 2, 7:53 AM)30.36 "Hg (Sep 2, 7:53 AM)
Low42 °F (Sep 17, 5:53 AM)30% (Sep 4, 12:53 PM)29.72 "Hg (Sep 3, 2:53 AM)
Average66 °F78%30.07 "Hg
* Reported Sep 2 6:53 AM — Sep 17 6:01 AM, New Bedford, Weather by CustomWeather, © 2014

Note: Actual official high and low records may vary slightly from our data, if they occured in-between our weather recording intervals... More about our weather records

Advertising

New Bedford weather history for previous 24 hours

 ConditionsComfort  
Time TempWeatherWind HumidityBarometerVisibility
6:01 AM
Sep 17
43 °FFog.No wind97%30.00 "Hg2 mi
5:53 AM42 °FFog.No wind100%29.99 "Hg3 mi
4:53 AM45 °FClear.No wind97%29.99 "Hg7 mi
3:53 AM45 °FFog.No wind97%29.98 "Hg6 mi
2:57 AM47 °FFog.No wind97%29.99 "Hg2 mi
1:53 AM47 °FClear.No wind100%29.98 "Hg10 mi
12:53 AM48 °FPassing clouds.No wind96%29.98 "Hg9 mi
11:59 PM
Sep 16
49 °FFog.No wind97%29.99 "Hg2 mi
11:01 PM49 °FFog.No wind97%29.98 "Hg1 mi
10:53 PM50 °FClear.No wind96%29.98 "Hg10 mi
9:53 PM51 °FClear.No wind96%29.98 "Hg8 mi
8:53 PM54 °FClear.No wind97%29.98 "Hg10 mi
7:53 PM57 °FClear.No wind93%29.96 "Hg10 mi
6:53 PM61 °FOvercast.No wind81%29.96 "Hg10 mi
5:53 PM63 °FLight rain. Overcast.3 mph73%29.95 "Hg10 mi
4:53 PM65 °FOvercast.7 mph66%29.95 "Hg10 mi
3:53 PM68 °FPartly sunny.9 mph57%29.93 "Hg10 mi
2:53 PM68 °FMostly cloudy.7 mph59%29.94 "Hg10 mi
1:53 PM69 °FPartly sunny.6 mph55%29.95 "Hg10 mi
12:53 PM67 °FMostly cloudy.9 mph61%29.98 "Hg10 mi
11:53 AM67 °FMostly cloudy.5 mph61%29.99 "Hg10 mi
10:53 AM68 °FSunny.6 mph59%30.00 "Hg10 mi
9:53 AM67 °FSunny.7 mph57%30.00 "Hg10 mi
8:53 AM63 °FSunny.No wind75%30.01 "Hg10 mi
7:53 AM53 °FSunny.No wind93%30.03 "Hg10 mi
Weather by CustomWeather, © 2014

See weather overviewHow to use our weather pages